"Pseudo-MPEC" for A11Gjji

Created 2026 Sep 5 9:35:03 UT using Find_Orb

Click here for an explanation of pseudo-MPECs

 
 Astrometry: 
     A11Gjji*0C2026 09 04.41655123 52 30.768-15 29 36.06   ~94Eo 17.05oVNEOCPT05
     A11Gjji 0C2026 09 04.42024323 53 48.319-15 27 34.16   ~94Eo 16.97oVNEOCPT05
     A11Gjji 0C2026 09 04.42613523 55 49.730-15 24 16.52   ~94Eo 17.04oVNEOCPT05

Station data:
(T05) ATLAS-HKO, Haleakala  (N20.707551 W156.257010)  US/Hawaii.  Observers
   L. Denneau, R. Siverd, J. Tonry, H. Weiland. Measurers L. Denneau, N.
   Erasmus, A. Fitzsimmons, J. Robinson, R. Siverd, J. Tonry, H. Weiland.
   0.5-m f/2.0 Schmidt + CCD.

Orbital elements:  A11Gjji
   Perigee 2026 Sep 4.728839 +/- 32.5 TT = 17:29:31.6 (JD 2461288.228839)
Epoch 2026 Sep  4.0 TT = JDT 2461287.5                           AutoNEOCP
q225368.5359 +/- 8.88e+6            (J2000 equator)
H   29.30 G 0.15                    Peri.  350.781296 +/- 80
                                    Node    62.711195 +/- 53
e  88.80877613 +/- 0.246            Incl.   16.458729 +/- 2.3
From 3 observations 2026 Sept. 4 (13.8 min); mean residual 9".02
Residuals in arcseconds: 
260904 T05 10.6-  .78-    260904 T05 17.9+  1.4+    260904 T05  7.3-  .60-    

Ephemerides (geocentric):
Date (UTC) HH   RA             Dec           delta  r     elong  mag " sig PA
---- --------  ------------   ------------  ------ ------ -----  --- --------
2026 09 05 10  08 24 44.734   +14 48 58.34  777514 1.0042  37.8 25??  43d 102
2026 09 05 11  08 28 30.929   +14 55 50.35  820648 1.0039  36.9 25??  43d 102
2026 09 05 12  08 31 54.705   +15 01 49.20  863964 1.0036  36.2 25??  43d 102
2026 09 05 13  08 34 59.165   +15 07 03.91  907436 1.0033  35.5 25??  44d 102
2026 09 05 14  08 37 46.878   +15 11 41.65  951041 1.0030  34.9 25??  44d 102
2026 09 05 15  08 40 19.987   +15 15 48.18  994763 1.0027  34.4 26??  44d 102
2026 09 05 16  08 42 40.288   +15 19 28.18  .00694 1.0024  33.8 26??  44d 102
2026 09 05 17  08 44 49.301   +15 22 45.48  .00724 1.0022  33.4 26??  44d 102
2026 09 05 18  08 46 48.320   +15 25 43.21  .00753 1.0019  33.0 26??  45d 102
2026 09 05 19  08 48 38.447   +15 28 24.00  .00782 1.0016  32.6 26??  45d 102
2026 09 05 20  08 50 20.634   +15 30 50.03  .00812 1.0013  32.2 26??  45d 102
2026 09 05 21  08 51 55.701   +15 33 03.13  .00841 1.0010  31.9 27??  45d 102
2026 09 05 22  08 53 24.361   +15 35 04.85  .00871 1.0007  31.6 27??  45d 102
2026 09 05 23  08 54 47.235   +15 36 56.53  .00901 1.0004  31.3 27??  45d 102
2026 09 06 00  08 56 04.868   +15 38 39.29  .00930 1.0002  31.1 27??  45d 102
2026 09 06 01  08 57 17.739   +15 40 14.11  .00960 0.9999  30.8 27??  45d 102
2026 09 06 02  08 58 26.271   +15 41 41.82  .00990 0.9996  30.6 27??  46d 102
2026 09 06 03  08 59 30.838   +15 43 03.15  .01019 0.9993  30.4 27??  46d 102
2026 09 06 04  09 00 31.774   +15 44 18.74  .01049 0.9990  30.2 27??  46d 102
2026 09 06 05  09 01 29.375   +15 45 29.15  .01079 0.9987  30.0 27??  46d 102
2026 09 06 06  09 02 23.906   +15 46 34.87  .01108 0.9985  29.9 27??  46d 102
2026 09 06 07  09 03 15.608   +15 47 36.32  .01138 0.9982  29.7 28??  46d 102
2026 09 06 08  09 04 04.693   +15 48 33.88  .01168 0.9979  29.6 28??  46d 102
2026 09 06 09  09 04 51.356   +15 49 27.89  .01198 0.9976  29.4 28??  46d 102
2026 09 06 10  09 05 35.772   +15 50 18.66  .01228 0.9973  29.3 28??  46d 102
2026 09 06 11  09 06 18.098   +15 51 06.45  .01257 0.9971  29.2 28??  46d 102
2026 09 06 12  09 06 58.480   +15 51 51.50  .01287 0.9968  29.1 28??  46d 102
2026 09 06 13  09 07 37.048   +15 52 34.03  .01317 0.9965  29.0 28??  46d 102
2026 09 06 14  09 08 13.923   +15 53 14.23  .01347 0.9962  28.9 28??  46d 102
2026 09 06 15  09 08 49.213   +15 53 52.28  .01377 0.9959  28.8 28??  46d 102
2026 09 06 16  09 09 23.020   +15 54 28.32  .01406 0.9956  28.7 28??  46d 102
2026 09 06 17  09 09 55.434   +15 55 02.52  .01436 0.9954  28.6 28??  46d 102
2026 09 06 18  09 10 26.541   +15 55 34.99  .01466 0.9951  28.5 28??  47d 102
2026 09 06 19  09 10 56.419   +15 56 05.86  .01496 0.9948  28.5 28??  47d 102
2026 09 06 20  09 11 25.139   +15 56 35.23  .01526 0.9945  28.4 28??  47d 102
2026 09 06 21  09 11 52.769   +15 57 03.21  .01556 0.9942  28.3 28??  47d 102
2026 09 06 22  09 12 19.369   +15 57 29.87  .01586 0.9940  28.3 29??  47d 102
2026 09 06 23  09 12 44.996   +15 57 55.31  .01616 0.9937  28.2 29??  47d 102
2026 09 07 00  09 13 09.704   +15 58 19.60  .01645 0.9934  28.2 29??  47d 102
2026 09 07 01  09 13 33.541   +15 58 42.82  .01675 0.9931  28.1 29??  47d 102
2026 09 07 02  09 13 56.553   +15 59 05.01  .01705 0.9928  28.1 29??  47d 102
2026 09 07 03  09 14 18.782   +15 59 26.25  .01735 0.9926  28.0 29??  47d 102
2026 09 07 04  09 14 40.269   +15 59 46.60  .01765 0.9923  28.0 29??  47d 102
2026 09 07 05  09 15 01.051   +16 00 06.09  .01795 0.9920  28.0 29??  47d 102
2026 09 07 06  09 15 21.162   +16 00 24.77  .01825 0.9917  27.9 29??  47d 102
2026 09 07 07  09 15 40.634   +16 00 42.70  .01855 0.9914  27.9 29??  47d 102
2026 09 07 08  09 15 59.498   +16 00 59.91  .01885 0.9912  27.9 29??  47d 102
2026 09 07 09  09 16 17.782   +16 01 16.44  .01915 0.9909  27.8 29??  47d 102